Location: Killam
(52.7910°N, 111.8608°W)
Time: 03:08:49
(UTC+00:00)

Oscar 11 - Pass Details

Date: 19 March 2026
Orbit: 590 x 602 km, 97.8° (Epoch: 13 April)

Event Time Altitude Azimuth Distance (km) Brightness Sun altitude
Rises 10:15:52 0° 23° (NNE) 2,840 11.5 -27.9°
Reaches altitude 10° 10:18:21 10° 36° (NE) 1,932 10.5 -27.7°
Maximum altitude 10:21:52 25° 93° (E) 1,196 8.9 -27.3°
Enters shadow 10:23:01 22° 120° (ESE) 1,296 8.8 -27.1°
